{"data":{"norad_id":61776,"intl_designator":"2024-199AT","name":"SITRO-AIS 40","alt_names":[],"object_type":"PAYLOAD","status":"ACTIVE","operator":null,"country":"CIS","launch_date":"2024-11-04","launch_site_code":"VOSTO","launch_vehicle":null,"mission":null,"orbit_class":"UNKNOWN","rcs_meters":null,"size_class":null,"mass_kg":null,"dimensions":null,"purposes":[],"wikipedia_slug":null,"has_3d_model":false,"image_url":null,"decayed_at":null,"tle_current":{"epoch":"2026-09-22T21:30:21.677472Z","epoch_age_seconds":95055,"freshness":"FRESH","line1":"1 61776U 24199AT  26265.89608423  .00091801  00000+0  64764-3 0  9991","line2":"2 61776  97.2672 145.9235 0001042 259.0407 101.0741 15.73786088152921","mean_motion":15.73786088,"eccentricity":0.0001042,"inclination_deg":97.2672,"raan_deg":145.9235,"arg_perigee_deg":259.0407,"mean_anomaly_deg":101.0741,"bstar":0.00064764,"rev_number":15292,"period_min":91.499093236361,"perigee_km":347.38685657012,"apogee_km":348.78860180369,"semimajor_km":6726.2247291869,"source":"CELESTRAK","updated_at":"2026-09-23T09:00:21.035356Z"}}}